GW3202 Weather Reports


Display with metric or nautical units.
time (UTC)temp
F
wind
direction
speed
MPH
gust
MPH
rain 1hr
in
rain 24hr
in
rain mn
in
humidity
%
barometer
mb
20260510224004 83 229 5.0 15.0 0.00 0.00 0.00 41 1017.3
20260510223004 83 191 4.0 13.0 0.00 0.00 0.00 41 1017.3
20260510222004 85 175 3.0 10.0 0.00 0.00 0.00 39 1017.2
20260510221007 84 146 5.0 10.0 0.00 0.00 0.00 36 1017.4
20260510220004 84 218 6.0 12.0 0.00 0.00 0.00 36 1017.5
20260510214004 85 165 5.0 12.0 0.00 0.00 0.00 37 1017.6
20260510213005 84 157 3.0 13.0 0.00 0.00 0.00 38 1017.8
20260510212004 84 197 3.0 13.0 0.00 0.00 0.00 38 1017.8
20260510211004 84 172 3.0 15.0 0.00 0.00 0.00 38 1018.0
20260510210005 85 176 6.0 12.0 0.00 0.00 0.00 38 1017.9
20260510205004 85 238 5.0 14.0 0.00 0.00 0.00 37 1017.8
20260510204004 85 233 5.0 13.0 0.00 0.00 0.00 38 1018.1
20260510203004 85 256 5.0 13.0 0.00 0.00 0.00 37 1018.1
20260510202004 87 173 3.0 16.0 0.00 0.00 0.00 37 1018.1
20260510201004 85 221 8.0 16.0 0.00 0.00 0.00 38 1018.3
20260510200005 84 158 7.0 16.0 0.00 0.00 0.00 39 1018.4
20260510195004 84 118 6.0 17.0 0.00 0.00 0.00 40 1018.4
20260510194004 84 152 4.0 15.0 0.00 0.00 0.00 40 1018.5
20260510191004 87 154 4.0 12.0 0.00 0.00 0.00 37 1018.8
20260510190005 85 167 5.0 14.0 0.00 0.00 0.00 39 1018.9
20260510185005 84 200 6.0 14.0 0.00 0.00 0.00 40 1019.0
20260510184004 85 212 4.0 13.0 0.00 0.00 0.00 39 1019.0
20260510183004 85 181 6.0 10.0 0.00 0.00 0.00 39 1019.1
20260510182005 83 216 4.0 13.0 0.00 0.00 0.00 40 1019.4
20260510181004 83 172 3.0 12.0 0.00 0.00 0.00 42 1019.3
20260510180002 82 212 1.0 15.0 0.00 0.00 0.00 42 1019.4
20260510175003 82 164 2.0 14.0 0.00 0.00 0.00 43 1019.6
20260510174002 81 164 4.0 13.0 0.00 0.00 0.00 44 1019.7
20260510173002 81 177 3.0 12.0 0.00 0.00 0.00 43 1019.9
20260510172003 80 137 6.0 12.0 0.00 0.00 0.00 44 1019.9
20260510171003 80 162 2.0 13.0 0.00 0.00 0.00 44 1020.0
20260510170003 79 164 5.0 13.0 0.00 0.00 0.00 44 1020.0
20260510165003 79 165 3.0 14.0 0.00 0.00 0.00 44 1020.2
20260510164002 78 145 4.0 13.0 0.00 0.00 0.00 44 1020.2
20260510163003 78 157 6.0 12.0 0.00 0.00 0.00 44 1020.2
20260510162003 78 168 5.0 12.0 0.00 0.00 0.00 43 1020.3
20260510161002 77 192 4.0 13.0 0.00 0.00 0.00 44 1020.3
20260510160002 77 154 7.0 14.0 0.00 0.00 0.00 42 1020.2
20260510155003 77 171 3.0 14.0 0.00 0.00 0.00 43 1020.2
20260510154002 77 161 5.0 10.0 0.00 0.00 0.00 44 1020.3
20260510153003 77 148 5.0 10.0 0.00 0.00 0.00 45 1020.2
20260510152002 77 188 1.0 7.0 0.00 0.00 0.00 44 1020.3
20260510151003 77 161 5.0 8.0 0.00 0.00 0.00 46 1020.5
20260510150003 75 152 2.0 6.0 0.00 0.00 0.00 47 1020.4
20260510145002 76 257 1.0 8.0 0.00 0.00 0.00 47 1020.3
20260510144003 75 156 3.0 7.0 0.00 0.00 0.00 50 1020.1
20260510142003 69 347 1.0 3.0 0.00 0.00 0.00 62 1020.0
20260510141003 69 299 0.0 2.0 0.00 0.00 0.00 63 1020.0
20260510140003 70 8 0.0 3.0 0.00 0.00 0.00 61 1020.0
20260510135003 70 161 1.0 3.0 0.00 0.00 0.00 62 1019.8
20260510134003 66 358 0.0 3.0 0.00 0.00 0.00 69 1019.9
20260510133002 65 278 1.0 3.0 0.00 0.00 0.00 69 1019.6
20260510132003 65 102 0.0 2.0 0.00 0.00 0.00 69 1019.5
20260510131003 65 129 1.0 3.0 0.00 0.00 0.00 70 1019.4
20260510130002 63 131 1.0 3.0 0.00 0.00 0.00 72 1019.2
20260510125002 62 117 0.0 2.0 0.00 0.00 0.00 74 1018.9
20260510124004 62 267 0.0 2.0 0.00 0.00 0.00 76 1018.9
20260510123003 61 139 0.0 2.0 0.00 0.00 0.00 77 1018.6
20260510122003 61 240 0.0 3.0 0.00 0.00 0.00 76 1018.6
20260510121003 63 220 0.0 2.0 0.00 0.00 0.00 74 1018.5
20260510120003 63 145 0.0 2.0 0.00 0.00 0.00 71 1018.2
20260510114003 64 137 0.0 3.0 0.00 0.00 0.00 72 1018.4
20260510113003 63 262 0.0 3.0 0.00 0.00 0.00 72 1018.4
20260510112003 64 148 1.0 5.0 0.00 0.00 0.00 72 1018.3
20260510110003 64 156 0.0 3.0 0.00 0.00 0.00 70 1018.3
20260510105003 64 131 1.0 5.0 0.00 0.00 0.00 70 1018.4
20260510104004 64 143 3.0 5.0 0.00 0.00 0.00 71 1018.4
20260510103002 64 286 0.0 2.0 0.00 0.00 0.00 72 1018.5
20260510100003 65 262 1.0 6.0 0.00 0.00 0.00 72 1018.6
20260510095003 65 289 2.0 6.0 0.00 0.00 0.00 71 1018.7
20260510093003 65 161 1.0 3.0 0.00 0.00 0.00 70 1018.7
20260510091004 66 193 1.0 3.0 0.00 0.00 0.00 70 1018.9
20260510090003 66 261 0.0 5.0 0.00 0.00 0.00 70 1019.0
20260510085003 66 287 2.0 5.0 0.00 0.00 0.00 71 1019.0
20260510084003 67 333 2.0 3.0 0.00 0.00 0.00 70 1018.7
20260510083003 66 330 1.0 3.0 0.00 0.00 0.00 70 1018.9
20260510082004 66 92 1.0 3.0 0.00 0.00 0.00 70 1019.1
20260510081004 66 82 0.0 2.0 0.00 0.00 0.00 70 1019.2
20260510080003 66 244 1.0 2.0 0.00 0.00 0.00 70 1019.1
20260510075003 67 283 2.0 2.0 0.00 0.00 0.00 69 1019.1
20260510074003 67 286 1.0 2.0 0.00 0.00 0.00 68 1019.4
20260510073005 68 169 1.0 6.0 0.00 0.00 0.00 65 1019.3
20260510072003 68 215 1.0 5.0 0.00 0.00 0.00 63 1019.4
20260510071006 69 353 1.0 7.0 0.00 0.00 0.00 62 1019.3
20260510070011 68 188 3.0 9.0 0.00 0.00 0.00 61 1019.5
20260510065003 69 80 3.0 8.0 0.00 0.00 0.00 61 1019.4
20260510064004 69 356 1.0 6.0 0.00 0.00 0.00 61 1019.3
20260510063003 69 301 3.0 6.0 0.00 0.00 0.00 62 1019.4
20260510062003 69 140 1.0 3.0 0.00 0.00 0.00 62 1019.5
20260510061004 69 152 1.0 14.0 0.00 0.00 0.00 61 1019.6
20260510060004 69 130 1.0 20.0 0.00 0.00 0.00 61 1019.8
20260510055003 69 102 8.0 22.0 0.00 0.00 0.00 62 1019.5
20260510054003 69 137 15.0 23.0 0.00 0.00 0.00 61 1019.3
20260510053003 69 131 10.0 22.0 0.00 0.00 0.00 61 1019.3
20260510051003 68 143 12.0 28.0 0.00 0.00 0.00 61 1019.3
20260510045003 69 152 12.0 28.0 0.00 0.00 0.00 60 1019.1
20260510044003 69 137 10.0 28.0 0.00 0.00 0.00 60 1019.0
20260510043003 69 133 12.0 22.0 0.00 0.00 0.00 56 1018.9
20260510041003 71 148 7.0 16.0 0.00 0.00 0.00 50 1018.6
20260510040003 71 150 9.0 21.0 0.00 0.00 0.00 45 1018.8
20260510035003 71 151 11.0 22.0 0.00 0.00 0.00 46 1018.8
20260510034003 72 155 9.0 20.0 0.00 0.00 0.00 44 1018.6
20260510033003 72 156 14.0 22.0 0.00 0.00 0.00 42 1018.6
20260510032003 72 140 10.0 26.0 0.00 0.00 0.00 40 1018.4
20260510031003 72 144 12.0 23.0 0.00 0.00 0.00 40 1018.4
20260510030004 72 142 12.0 28.0 0.00 0.00 0.00 41 1018.3
20260510025003 72 176 10.0 28.0 0.00 0.00 0.00 39 1018.2
20260510023005 73 150 14.0 24.0 0.00 0.00 0.00 40 1017.8
20260510022004 73 142 8.0 30.0 0.00 0.00 0.00 39 1017.7
20260510021003 72 146 13.0 23.0 0.00 0.00 0.00 44 1017.5
20260510020003 72 142 13.0 26.0 0.00 0.00 0.00 52 1017.3
20260510015003 73 120 13.0 26.0 0.00 0.00 0.00 52 1017.1
20260510014004 74 121 6.0 25.0 0.00 0.00 0.00 53 1017.3
20260510013003 74 135 10.0 23.0 0.00 0.00 0.00 55 1017.1
20260510011003 75 147 9.0 23.0 0.00 0.00 0.00 53 1016.6
20260510010003 75 161 14.0 23.0 0.00 0.00 0.00 53 1016.7
20260510005003 76 183 10.0 23.0 0.00 0.00 0.00 53 1016.4
20260510004003 77 133 14.0 23.0 0.00 0.00 0.00 51 1016.2
20260510003004 78 176 11.0 23.0 0.00 0.00 0.00 49 1016.2
20260510002004 80 154 9.0 18.0 0.00 0.00 0.00 45 1016.2
20260510000004 81 163 8.0 24.0 0.00 0.00 0.00 44 1015.9
20260509235004 80 182 8.0 22.0 0.00 0.00 0.00 44 1016.0
20260509234003 80 173 9.0 22.0 0.00 0.00 0.00 44 1015.9
20260509233004 81 162 9.0 21.0 0.00 0.00 0.00 44 1015.8
20260509232004 81 159 7.0 21.0 0.00 0.00 0.00 43 1015.9
20260509231003 80 188 12.0 22.0 0.00 0.00 0.00 43 1015.9
20260509230003 82 151 14.0 23.0 0.00 0.00 0.00 43 1015.9
20260509225003 81 156 12.0 21.0 0.00 0.00 0.00 44 1015.8